Wind_Speed
8 8 10 10 11 12 12 12 12 12 13 13 13 13 13 13 13 13 13 13 13 13 13 12 13 14 14 14 14 14 13 14 14 15 14 14 14 14 14 14 14 14 15
8 9 9 10 10 11 12 12 12 13 13 13 13 13 13 13 13 13 14 14 14 14 13 13 13 13 14 14 14 15 15 15 15 15 14 14 14 15 15 15 15 14 14
8 9 10 10 11 11 12 12 12 13 13 13 13 12 12 13 13 14 14 14 15 15 15 14 14 15 15 15 16 16 16 16 15 15 14 15 15 15 14 14 14 14 15
9 9 10 10 10 11 12 12 12 12 12 12 12 12 12 13 13 14 15 15 15 15 16 16 16 15 16 16 16 16 16 15 15 15 15 15 15 15 15 15 14 15 15
9 9 9 10 10 10 11 11 12 12 12 12 12 12 12 13 13 14 15 15 15 16 16 16 16 17 16 16 15 16 16 16 16 16 16 15 16 16 16 15 15 15 16
8 9 9 10 10 10 10 11 11 12 12 11 11 12 13 13 13 13 14 14 15 16 16 16 16 16 16 16 16 16 16 17 16 16 16 16 16 16 16 15 16 16 16
9 9 9 10 9 10 10 11 11 11 11 12 12 12 12 13 13 13 14 15 15 16 16 15 15 15 15 16 16 16 16 16 16 17 16 17 16 16 16 17 17 17 17
9 10 10 10 10 10 11 11 11 10 11 12 13 13 13 13 13 14 15 15 16 16 16 17 17 16 17 16 16 16 16 16 17 17 17 17 17 16 17 17 17 17 17
10 10 11 11 11 11 12 12 11 12 12 13 13 13 13 13 13 14 14 15 16 16 16 17 17 17 18 18 17 17 17 17 17 17 17 17 17 17 17 16 16 16 16
10 11 12 12 12 12 12 13 13 13 13 13 13 13 14 14 14 14 15 15 16 16 16 17 17 17 18 18 17 17 17 17 17 17 17 17 16 16 17 17 16 15 15
11 12 12 12 12 13 13 13 14 14 14 14 14 14 15 14 15 15 15 16 16 17 17 18 18 18 17 17 17 17 16 16 17 16 16 16 16 17 17 17 17 16 15
12 12 12 12 13 13 13 13 14 14 14 15 15 15 16 16 16 16 16 17 17 18 18 18 17 17 17 17 17 16 16 16 16 15 15 15 16 16 17 17 17 17 15
12 12 13 14 14 14 14 14 14 14 14 15 15 16 16 16 16 17 17 18 18 18 18 18 17 17 17 17 16 16 17 16 16 16 15 15 16 16 16 16 16 16 15
13 13 14 14 14 14 14 14 14 14 14 15 16 16 17 17 17 17 18 18 18 17 17 17 17 17 17 17 16 16 16 16 16 16 16 15 16 16 16 16 15 16 15
14 15 15 14 14 14 14 14 14 14 15 15 15 16 17 17 17 17 18 18 18 17 16 17 17 17 17 17 17 17 17 16 17 17 17 17 17 16 16 16 16 16 16
15 15 15 15 15 15 15 15 15 15 15 16 16 16 16 17 17 17 17 18 18 18 18 18 18 18 18 17 16 17 17 17 18 18 18 17 17 17 17 17 17 18 17
15 15 16 16 16 16 16 16 17 17 17 17 17 17 17 17 17 18 18 18 18 18 18 18 18 18 18 18 18 18 18 18 18 19 19 19 18 18 18 18 18 18 17
17 17 17 17 18 18 18 18 18 18 18 18 18 18 18 18 18 18 19 19 19 18 19 19 19 19 19 19 18 19 19 19 20 20 19 19 19 19 19 19 18 18 18
19 19 19 19 19 19 20 19 19 19 19 19 19 19 19 19 19 19 20 20 20 19 19 19 19 18 19 19 19 19 20 20 21 21 21 20 20 20 20 19 19 19 19
20 20 20 20 20 21 21 20 20 20 21 20 20 20 20 20 20 20 20 21 21 21 20 19 19 19 19 19 20 20 20 21 22 22 22 21 21 20 20 20 20 20 20
20 20 21 21 22 21 21 21 21 21 21 21 21 21 21 21 21 21 20 21 21 21 21 20 20 20 20 21 21 21 21 22 22 22 23 23 22 22 21 21 21 21 21
21 21 21 22 22 22 22 22 21 21 21 21 21 21 22 22 21 21 20 20 21 21 21 21 21 21 21 22 22 22 22 22 22 23 23 23 23 23 22 22 22 22 22
22 22 22 22 22 22 22 22 21 21 21 21 21 21 21 22 22 22 22 22 22 22 22 22 22 22 23 23 23 23 23 23 23 24 24 23 24 23 23 23 23 23 23
22 22 22 22 22 22 22 22 22 22 22 22 21 21 21 22 23 23 23 23 23 23 23 23 23 23 24 24 24 24 24 24 24 25 25 24 24 24 24 24 25 25 25
23 23 22 23 22 22 22 23 23 23 23 22 22 22 22 22 23 24 24 24 23 23 24 24 24 24 25 25 25 25 25 25 25 25 26 26 25 25 25 25 26 27 27
24 23 23 23 23 23 23 23 24 24 24 24 23 24 24 24 24 24 25 25 24 24 25 26 25 25 26 26 26 26 26 26 26 26 26 27 27 26 26 26 27 28 29
Wind_Direction
257 258 258 258 260 262 260 260 260 259 260 259 259 261 263 262 263 260 258 258 260 263 264 267 269 271 273 275 277 276 277 279 278 278 276 276 275 273 275 277 280 281 278
263 269 268 264 264 263 264 263 260 261 260 260 261 263 264 265 263 261 258 259 262 264 265 264 269 272 274 275 277 277 278 279 280 280 280 279 278 277 276 276 278 278 277
267 271 272 269 269 266 267 264 262 262 262 262 263 264 263 264 262 261 260 260 262 263 265 267 269 273 275 275 277 277 277 279 279 280 281 280 279 279 277 278 278 278 278
270 272 275 276 276 274 271 268 267 262 262 265 266 265 266 262 262 263 261 261 262 263 265 267 270 273 275 278 277 276 278 281 281 280 281 279 278 277 276 279 281 280 278
272 275 276 277 277 275 271 269 270 267 264 266 267 268 269 265 262 263 264 264 265 268 269 270 273 275 276 277 278 278 278 281 282 280 280 279 278 278 278 279 280 281 278
274 277 277 277 277 276 273 269 270 267 266 266 268 270 272 270 267 266 266 266 267 269 270 273 274 276 277 278 279 280 280 280 280 280 280 280 281 279 279 280 280 279 278
278 281 279 278 277 277 275 273 272 270 268 267 268 270 272 271 271 271 271 273 272 272 273 275 277 279 280 280 279 278 280 281 280 280 280 280 280 279 278 280 280 278 277
280 281 281 279 277 277 276 276 272 272 274 272 271 270 271 271 273 273 275 276 276 275 275 276 279 280 280 279 278 277 279 278 279 280 279 279 279 278 278 280 280 279 276
280 280 281 281 279 279 277 274 271 270 272 275 274 273 273 273 273 276 277 277 277 277 278 279 279 278 277 277 278 277 277 277 278 280 280 280 279 278 280 280 280 279 274
279 278 280 280 279 278 276 273 269 270 272 274 275 275 276 277 276 276 278 279 279 280 279 280 281 280 277 277 278 278 278 278 279 279 280 279 277 278 279 278 279 277 275
280 279 280 277 277 279 279 275 271 270 271 272 272 274 275 277 277 276 278 278 279 279 280 281 282 280 278 277 278 277 278 279 279 279 277 277 277 276 278 279 278 276 275
280 280 279 279 279 280 280 278 275 272 271 271 271 272 274 276 278 278 278 278 279 280 280 281 281 279 277 276 277 277 277 278 278 278 276 277 278 278 278 281 279 276 276
281 280 281 282 281 280 280 279 277 275 275 274 272 272 274 277 278 278 278 279 280 280 280 281 281 278 275 273 275 276 275 276 278 279 278 276 278 280 281 283 281 280 278
283 281 281 282 282 283 282 281 280 278 277 277 274 273 274 275 276 278 280 281 281 281 280 281 280 278 277 274 273 274 275 276 278 278 277 278 279 282 283 283 283 281 280
284 282 282 281 281 281 282 281 281 280 280 280 277 276 275 275 275 277 279 281 281 279 279 280 280 278 276 275 273 272 273 274 275 276 277 277 279 280 280 280 281 281 280
285 283 281 280 281 281 281 279 280 279 280 281 280 279 277 275 274 275 277 280 281 279 278 278 278 276 275 274 274 274 272 272 273 275 276 277 278 278 279 279 279 279 279
286 284 281 280 279 280 280 280 279 278 279 280 280 279 278 276 275 274 277 279 280 280 279 279 277 275 274 273 274 275 274 273 274 274 275 275 275 276 279 280 280 279 277
284 282 281 280 280 280 281 280 279 279 279 278 277 278 278 276 276 274 275 277 279 280 280 279 277 276 275 272 272 274 274 273 273 274 275 275 274 275 278 279 279 278 276
284 282 281 281 280 280 280 280 279 280 280 278 277 277 278 278 279 277 275 276 277 278 279 278 277 277 276 273 272 274 275 274 273 274 273 274 274 275 276 278 278 277 275
283 282 282 281 281 281 280 280 280 280 280 278 277 277 278 277 279 279 277 274 275 276 277 277 276 277 276 274 273 274 275 274 273 273 273 274 274 275 276 276 276 275 275
283 282 282 282 283 284 282 280 279 279 279 278 277 276 276 277 279 280 277 274 273 273 275 276 276 276 276 276 276 276 276 275 274 274 273 274 274 274 276 277 277 277 274
284 282 282 283 283 283 282 280 280 279 279 278 277 275 276 278 278 280 277 276 275 273 272 274 275 275 276 277 277 278 278 277 275 274 274 274 273 273 275 276 277 278 277
283 283 282 282 282 283 282 281 280 280 280 279 277 276 276 277 276 277 277 277 277 274 273 273 275 276 276 277 277 277 277 276 274 273 273 274 272 272 274 276 277 277 277
282 283 282 282 281 282 280 279 281 282 281 280 278 277 277 277 277 277 278 277 275 274 274 274 275 276 276 275 276 277 276 275 274 274 273 273 272 272 273 274 276 277 278
282 281 282 281 279 279 279 278 280 281 281 280 278 276 276 277 278 278 277 275 273 273 273 273 274 275 275 275 276 276 275 273 274 274 273 273 272 273 274 274 276 277 277
280 280 281 280 279 279 279 278 279 280 281 279 278 277 277 278 278 278 277 276 274 273 274 275 275 275 275 275 275 276 276 274 273 273 273 273 273 274 275 276 277 277 277
Height
5848 5849 5850 5851 5851 5852 5853 5854 5854 5855 5856 5856 5857 5858 5858 5859 5860 5861 5862 5862 5863 5864 5864 5864 5865 5865 5866 5866 5866 5866 5866 5866 5866 5866 5866 5866 5867 5867 5866 5866 5866 5866 5866
5847 5847 5848 5849 5849 5850 5851 5851 5852 5852 5853 5854 5855 5855 5856 5856 5857 5858 5859 5860 5860 5861 5862 5862 5862 5863 5863 5863 5863 5863 5864 5864 5864 5864 5863 5863 5864 5864 5863 5863 5863 5863 5863
5845 5846 5846 5847 5847 5848 5848 5849 5849 5850 5850 5851 5852 5853 5853 5854 5855 5856 5856 5857 5858 5858 5859 5859 5860 5860 5860 5860 5861 5861 5860 5860 5860 5860 5860 5860 5860 5860 5860 5860 5860 5860 5860
5843 5844 5844 5844 5845 5845 5846 5846 5847 5847 5848 5849 5849 5850 5850 5851 5852 5852 5853 5854 5854 5855 5856 5856 5857 5857 5857 5857 5857 5857 5857 5857 5857 5857 5857 5857 5857 5857 5857 5857 5857 5857 5856
5841 5842 5842 5843 5843 5843 5843 5844 5844 5845 5845 5846 5846 5847 5847 5848 5849 5849 5850 5851 5851 5852 5852 5853 5853 5853 5853 5854 5854 5854 5854 5853 5853 5853 5853 5853 5853 5853 5853 5853 5853 5853 5853
5840 5840 5840 5841 5841 5841 5841 5842 5842 5842 5843 5843 5844 5844 5845 5845 5846 5846 5847 5847 5848 5849 5849 5849 5849 5849 5850 5850 5850 5850 5850 5850 5850 5850 5850 5850 5849 5849 5849 5849 5849 5849 5849
5838 5838 5838 5838 5839 5839 5839 5839 5840 5840 5840 5841 5841 5842 5842 5843 5843 5843 5843 5844 5845 5845 5846 5845 5846 5846 5846 5846 5846 5846 5846 5846 5846 5846 5846 5846 5846 5846 5846 5846 5845 5845 5845
5836 5836 5836 5836 5836 5837 5837 5837 5837 5837 5838 5838 5839 5839 5840 5840 5840 5840 5840 5841 5841 5841 5842 5842 5842 5842 5842 5842 5842 5842 5842 5842 5842 5842 5842 5842 5842 5842 5842 5841 5841 5841 5841
5834 5834 5834 5834 5834 5834 5834 5834 5835 5835 5835 5836 5836 5837 5837 5837 5837 5837 5837 5837 5838 5838 5838 5838 5838 5838 5838 5838 5838 5838 5838 5838 5838 5838 5838 5838 5838 5838 5838 5837 5837 5837 5837
5831 5831 5831 5831 5831 5831 5831 5831 5832 5832 5832 5833 5833 5833 5833 5833 5834 5834 5834 5834 5834 5834 5834 5834 5834 5834 5834 5834 5834 5834 5834 5834 5834 5834 5834 5834 5834 5834 5834 5834 5833 5833 5833
5829 5828 5828 5828 5828 5828 5828 5828 5828 5829 5829 5829 5829 5830 5830 5830 5830 5830 5830 5830 5830 5829 5829 5829 5829 5829 5829 5829 5829 5830 5830 5830 5830 5830 5830 5830 5830 5830 5830 5830 5829 5829 5829
5826 5826 5825 5825 5825 5824 5824 5824 5824 5825 5825 5825 5826 5826 5826 5826 5826 5826 5826 5826 5826 5825 5825 5824 5824 5824 5825 5825 5825 5825 5825 5825 5825 5826 5826 5826 5826 5825 5825 5825 5825 5825 5825
5823 5822 5822 5822 5821 5821 5821 5821 5820 5821 5821 5821 5821 5821 5822 5822 5821 5821 5821 5821 5821 5820 5820 5820 5820 5820 5820 5820 5820 5820 5821 5821 5821 5821 5821 5821 5821 5821 5821 5821 5821 5821 5821
5819 5819 5818 5818 5818 5817 5817 5817 5817 5817 5817 5817 5817 5817 5817 5817 5817 5817 5816 5816 5816 5816 5816 5815 5815 5815 5815 5815 5815 5816 5816 5816 5817 5817 5817 5817 5817 5817 5817 5817 5817 5817 5816
5815 5815 5814 5814 5814 5813 5813 5813 5813 5812 5812 5812 5812 5812 5812 5812 5812 5812 5811 5811 5811 5811 5811 5811 5810 5810 5810 5810 5811 5811 5811 5812 5812 5812 5812 5813 5813 5813 5812 5812 5812 5812 5812
5811 5811 5810 5809 5809 5809 5809 5809 5808 5808 5808 5807 5807 5807 5807 5807 5807 5807 5806 5806 5806 5806 5806 5806 5806 5806 5806 5806 5806 5806 5806 5807 5807 5807 5808 5808 5808 5808 5808 5808 5808 5808 5808
5807 5806 5805 5805 5805 5804 5804 5804 5803 5803 5803 5802 5802 5802 5802 5802 5801 5801 5801 5801 5800 5801 5801 5801 5801 5801 5801 5801 5801 5801 5802 5802 5802 5802 5802 5803 5803 5803 5803 5803 5803 5803 5803
5802 5801 5801 5800 5800 5799 5799 5798 5798 5798 5798 5797 5797 5797 5797 5796 5796 5796 5796 5796 5795 5795 5795 5795 5795 5795 5796 5796 5796 5796 5796 5797 5797 5797 5797 5797 5798 5798 5798 5798 5798 5798 5798
5797 5796 5795 5795 5794 5794 5793 5793 5792 5792 5792 5792 5791 5791 5791 5791 5791 5790 5790 5790 5790 5789 5789 5789 5790 5790 5790 5790 5791 5791 5791 5791 5791 5791 5792 5792 5792 5792 5792 5792 5792 5792 5792
5792 5791 5790 5789 5789 5788 5787 5787 5786 5786 5786 5785 5785 5785 5785 5785 5785 5784 5784 5784 5783 5783 5783 5783 5784 5784 5784 5784 5785 5785 5785 5785 5785 5785 5786 5786 5786 5786 5786 5786 5786 5786 5786
5786 5785 5785 5784 5783 5782 5781 5780 5780 5780 5779 5779 5779 5778 5778 5778 5778 5778 5777 5777 5777 5777 5778 5778 5778 5778 5779 5778 5779 5779 5779 5779 5779 5779 5780 5780 5780 5780 5780 5780 5780 5780 5780
5780 5780 5779 5778 5777 5776 5775 5774 5774 5773 5773 5772 5772 5772 5772 5772 5772 5771 5771 5771 5771 5771 5771 5772 5772 5772 5772 5772 5772 5772 5772 5773 5773 5773 5773 5773 5774 5774 5774 5774 5774 5774 5774
5774 5773 5773 5772 5771 5770 5769 5768 5767 5767 5766 5766 5766 5766 5766 5765 5765 5765 5765 5765 5765 5764 5765 5765 5765 5765 5766 5766 5766 5766 5765 5766 5766 5766 5766 5767 5767 5767 5767 5767 5767 5767 5767
5768 5767 5766 5766 5765 5764 5763 5762 5761 5761 5761 5760 5760 5759 5759 5759 5759 5758 5758 5758 5758 5758 5758 5758 5758 5758 5758 5758 5758 5758 5758 5759 5759 5759 5759 5759 5760 5760 5760 5760 5760 5760 5759
5761 5761 5760 5759 5758 5758 5757 5756 5755 5755 5754 5754 5753 5753 5752 5752 5752 5751 5751 5751 5751 5751 5751 5751 5751 5751 5751 5750 5750 5750 5750 5751 5751 5751 5751 5752 5752 5752 5753 5753 5752 5752 5751
5754 5754 5753 5752 5752 5751 5750 5749 5749 5748 5748 5747 5747 5746 5746 5745 5745 5744 5744 5743 5744 5744 5744 5743 5743 5743 5743 5743 5742 5742 5742 5743 5743 5744 5744 5744 5744 5744 5745 5745 5744 5743 5743